Regional Weather Roundup
Issued by NWS

Home | Current Version | Previous Version | Text Only | Print | Product List | Glossary On
Versions: 1 2 3 4 5 6 7 8 9 10 11 12 13 14 15 16 17 18 19 20 21 22 23 24 25 26 27 28 29 30 31 32 33 34 35 36 37 38 39 40 41 42 43 44 45 46 47 48 49 50
000
ASUS43 KMPX 180501
RWRMN
WEATHER ROUNDUP FOR MINNESOTA
NATIONAL WEATHER SERVICE TWIN CITIES/CHANHASSEN MN
1100 PM CST TUE JAN 17 2017


NOTE: "FAIR" INDICATES FEW OR NO CLOUDS BELOW 12,000 FEET WITH NO
SIGNIFICANT WEATHER AND/OR OBSTRUCTIONS TO VISIBILITY. N/A MEANS
CURRENT SKY AND/OR WEATHER CONDITIONS ARE NOT AVAILABLE.

MNZ060>063-068>070-180600-
   Twin Cities Metro

CITY           SKY/WX    TMP DP  RH WIND       PRES   REMARKS
TWIN CITIES    CLOUDY    29  26  89 SW6       29.99F WCI  23
ST PAUL        CLOUDY    30  28  92 S5        30.01S WCI  25
CRYSTAL        CLOUDY    29  25  85 S9        29.97F WCI  20
BLAINE         CLOUDY    30  28  93 SW5       29.97F WCI  25
LAKEVILLE      CLOUDY    28  28 100 SW5       29.99F WCI  23
EDEN PRAIRIE   CLOUDY    30  27  88 SW9       29.98F FOG     WCI  22
SOUTH ST PAUL  CLOUDY    31  29  92 S8        29.99F WCI  23
LAKE ELMO      CLOUDY    32  30  93 SW8       29.99F WCI  25
$$
MNZ001>005-007-008-013>017-022>024-027-028-180600-
   Northwest Minnesota

CITY           SKY/WX    TMP DP  RH WIND       PRES   REMARKS
BEMIDJI        CLOUDY    24  19  80 S7        29.76F WCI  16
HALLOCK        CLOUDY    21  18  86 S14       29.65R WCI   8
ROSEAU         CLOUDY    27  19  74 S17       29.64S WCI  14
WARROAD        CLOUDY    25  19  80 SW17G23   29.64S WCI  11
THIEF RVR FALL FLURRIES  23  18  81 SW22G30   29.72F WCI   8
CROOKSTON      CLOUDY    21  18  86 SW24      29.74F WCI   4
FOSSTON        CLOUDY    23  18  80 S22       29.75F WCI   8
DETROIT LAKES  CLOUDY    19  18  93 S6        29.81F WCI  11
MOORHEAD       CLOUDY    18  14  86 S13       29.81F WCI   4
PARK RAPIDS    CLOUDY    18  12  77 S10       29.81S WCI   6
MAHNOMEN       FAIR      24  19  81 S20       29.76F WCI   9
$$
MNZ006-009>011-018-025>026-180600-
   North Central Minnesota

CITY           SKY/WX    TMP DP  RH WIND       PRES   REMARKS
BAUDETTE       CLOUDY    28  18  66 S14G22    29.64F WCI  17
FLAG ISLAND    CLOUDY    25  18  74 SW12      29.63R WCI  14
INTL FALLS     CLOUDY    28  19  69 S7        29.69F WCI  21
WASKISH        CLOUDY    28  21  74 S7        29.70F WCI  21
BIG FORK       CLOUDY    27  19  74 S10       29.76F WCI  17
LONGVILLE      CLOUDY    23  18  80 SW6       29.84R WCI  16
GRAND RAPIDS   CLOUDY    23  16  74 S7        29.84R WCI  15
CRANE LAKE     CLEAR     25  18  74 S6        29.77F WCI  18
ORR            CLOUDY    23  16  74 CALM      29.74F
COOK           CLOUDY    27  18  69 S6        29.78F WCI  20
WALKER         FAIR      23  17  79 S10       29.80F WCI  12
$$
MNZ012-019>021-037-180600-
   Northeast Minnesota

CITY           SKY/WX    TMP DP  RH WIND       PRES   REMARKS
DULUTH         CLOUDY    26  20  77 SW14      29.84S WCI  14
ELY            CLOUDY    25  16  68 SW6       29.78S WCI  18
HIBBING        CLOUDY    20  13  74 VRB6      29.81S WCI  12
EVELETH        CLOUDY    22  14  70 SW5       29.83S WCI  16
DULUTH HARBOR  CLOUDY    28  25  86 SW5       29.88F WCI  23
TWO HARBORS    CLOUDY    27  19  74 SW5       29.83S WCI  21
SILVER BAY     CLOUDY    18  18 100 CALM      29.82F
GRAND MARAIS     N/A     28  25  88 W3        29.84F
G MARAIS ARPRT CLOUDY    23  19  86 S5        29.79F FOG     WCI  17
$$
MNZ029>031-032-039>041-046>048-054>057-064-180600-
   West Central Minnesota

CITY           SKY/WX    TMP DP  RH WIND       PRES   REMARKS
FERGUS FALLS   CLOUDY    18  16  93 S12       29.90S WCI   5
WHEATON        CLOUDY    27  25  93 SE9       29.87R WCI  17
MORRIS         CLOUDY    16  12  86 SE10      29.86F WCI   3
ALEXANDRIA     CLOUDY    20  17  88 S10       29.86F WCI   9
ELBOW LAKE     FAIR      18  15  90 S10       29.86R WCI   6
WADENA         CLOUDY    19  16  86 SW8       29.85R WCI   9
GLENWOOD       CLOUDY    18  16  93 S9        29.88F WCI   6
APPLETON       CLOUDY    23  19  86 S7        29.89F WCI  15
ORTONVILLE     CLOUDY    18  14  86 CALM      29.86F
MADISON        CLOUDY    27  23  86 S14       29.89F WCI  15
WILLMAR        FAIR      14  12  92 CALM      29.93F FOG
$$
MNZ033>034-036-042>043-049>051-058-059-180600-
   Central Minnesota

CITY           SKY/WX    TMP DP  RH WIND       PRES   REMARKS
ST CLOUD       CLOUDY    17  16  95 SE10      29.93F FOG     WCI   5
SAUK CENTRE    FAIR      17  15  92 S3        29.89S
PAYNESVILLE    CLOUDY    19  19 100 S5        29.92F WCI  12
AITKIN         CLOUDY    25  18  74 S8        29.84F WCI  16
PINE RIVER     CLOUDY    19  16  86 S3        29.88R
BRAINERD       CLOUDY    19  15  84 S10       29.86F WCI   7
STAPLES        CLOUDY    16  12  86 S5        29.86R WCI   9
LONG PRAIRIE   FAIR      14  12  92 S6        29.88F WCI   5
LITTLE FALLS   CLOUDY    18  14  86 S3        29.91S
LITCHFIELD     CLOUDY    19  19 100 CALM      29.94F FOG
BUFFALO        CLOUDY    28  27  94 S7        29.97F WCI  21
MAPLE LAKE     CLOUDY    28  27  99 S6        29.95F FOG     WCI  21
HUTCHINSON     CLOUDY    24  23  97 S3        29.97S FOG
$$
MNZ037-044-045-052-053-180600-
   East Central Minnesota

CITY           SKY/WX    TMP DP  RH WIND       PRES   REMARKS
PRINCETON      CLOUDY    25  21  86 S6        29.94F FOG     WCI  18
MORA           CLOUDY    27  25  93 SW10      29.94F FOG     WCI  17
CAMBRIDGE      CLOUDY    27  19  74 S6        29.93F WCI  20
RUSH CITY      CLOUDY    27  23  86 SW8       29.94F WCI  18
MOOSE LAKE     CLOUDY    27  25  93 S9        29.87F FOG     WCI  17
HINCKLEY       CLOUDY    30  28  93 SW13      29.93S WCI  20
CLOQUET        CLOUDY    25  21  86 SW8       29.86S WCI  16
MCGREGOR       CLOUDY    23  21  93 S9        29.86F WCI  13
$$
MNZ071>073-080-081-089-090-097-098-180600-
   Southwest Minnesota

CITY           SKY/WX    TMP DP  RH WIND       PRES   REMARKS
MONTEVIDEO     CLOUDY    21  19  93 SW9       29.92F WCI  11
GRANITE FALLS  CLOUDY    18  17  93 S8        29.95F WCI   8
CANBY            N/A     31  26  81 SW13      29.90F WCI  21
MARSHALL       CLOUDY    30  26  85 SW15      29.92F WCI  19
REDWOOD FALLS  CLOUDY    19  16  88 S7        29.96S WCI  10
OLIVIA         CLOUDY    21  19  93 S7        29.94F WCI  13
PIPESTONE      CLOUDY    27  27 100 S13       29.94F WCI  16
WINDOM         CLOUDY    27  25  93 S6        29.97S WCI  20
WORTHINGTON    CLOUDY    26  25  96 SW16      29.97F WCI  14
JACKSON        CLOUDY    27  25  93 SW8       29.99S WCI  18
TRACY          CLOUDY    30  26  88 SW23      29.94S WCI  16
SLAYTON        CLOUDY    26  25  96 SW16      29.95F WCI  13
$$
MNZ065>067-074>077-082>085-091>093-180600-
   South Central Minnesota

CITY           SKY/WX    TMP DP  RH WIND       PRES   REMARKS
MANKATO        CLOUDY    26  25  96 S8        30.00  WCI  18
NEW ULM        CLOUDY    21  21 100 S5        29.98S WCI  15
ST JAMES       CLOUDY    25  25 100 S7        30.00R WCI  17
FAIRMONT       CLOUDY    26  25  96 SW13      30.01S FOG     WCI  15
GLENCOE        CLOUDY    27  27 100 S6        29.96F FOG     WCI  20
FARIBAULT      CLOUDY    28  28 100 S12       30.01S FOG     WCI  18
OWATONNA       CLOUDY    27  27 100 S6        30.00F FOG     WCI  20
WASECA         CLOUDY    28  27  93 S8        30.02S FOG     WCI  20
ALBERT LEA     CLOUDY    28  28 100 SW5       30.01S FOG     WCI  23
$$
MNZ078>079-086>088-094>096-180600-
   Southeast Minnesota

CITY           SKY/WX    TMP DP  RH WIND       PRES   REMARKS
ROCHESTER      CLOUDY    29  29 100 SW10      30.00S FOG     WCI  20
RED WING       CLOUDY    34  30  86 W7        30.01R FOG     WCI  28
STANTON        CLOUDY    31  28  91 SW8       30.00S WCI  23
DODGE CENTER   CLOUDY    28  28 100 CALM      30.00S FOG
WINONA         CLOUDY    34  32  93 SW6       30.03F WCI  29
AUSTIN         CLOUDY    28  27  93 SW10      30.02S WCI  19
PRESTON        FOG       31  30  96 SW8       30.02S VSB 3/4 WCI  23
$$
ABBREVIATIONS USED IN REMARKS
   TC - TEMPERATURES IN CELSIUS
  WCI - WIND CHILL INDEX
   HX - HEAT INDEX
  VSB - VISIBILITY
$$




USA.gov is the U.S. government's official web portal to all federal, state and local government web resources and services.